EUTELSAT 8 WEST B

Last updated on Sun Jun 21 2026 00:03:06 GMT+0000 (Coordinated Universal Time)

1 40875U 15039B 26171.39042381 -.00000070 00000+0 00000+0 0 9995 2 40875 0.0624 352.8456 0003869 93.5427 314.7707 1.00271553 39686
UTC large
Height (km)
Speed (km/s)
/
Latitude / Longitude
Inclination (degrees)
Orbital Period (minutes)
Azimuth
Elevation
Range (km)
Doppler Factor

Next 0 passes for location: London (51.5072 / 0.1276)

No passes found over London.
EUTELSAT 8 WEST B